Location: D�rrenried
(50.2181°N, 10.7432°E)
Time: 14:27:49
(UTC+00:00)

Daily predictions for brighter satellites

Satellite Brightness Start Highest point End
(mag) Time Altitude Azimuth Time Altitude Azimuth Time Altitude Azimuth
IRS-1A Rocket 4.4 18:06:18 10° SE 18:11:51 60° ENE 18:17:33 10° N
Cosmos 1553 Rocket 4.0 18:06:55 10° S 18:12:59 84° E 18:19:08 10° N
Cosmos 2219 Rocket 3.4 18:07:37 10° SW 18:13:04 48° NW 18:18:34 10° NNE
STARLINK-1084 3.8 18:10:28 10° WNW 18:14:37 67° NNE 18:18:45 10° E
STARLINK-1083 4.0 18:10:46 10° WNW 18:14:48 62° SSW 18:18:50 10° SE
STARLINK-1237 4.2 18:11:14 10° SSW 18:14:59 37° SE 18:18:45 10° ENE
KORONAS-FOTON 4.0 18:12:41 10° NNW 18:16:33 78° W 18:20:21 10° S
Cosmos 1943 Rocket 3.0 18:12:13 10° NNW 18:17:17 35° NE 18:22:20 10° ESE
STARLINK-1209 2.8 18:14:46 10° SW 18:17:40 62° SSE 18:20:35 10° ENE
Cosmos 1939 Rocket 4.3 18:14:32 10° S 18:18:19 42° W 18:22:04 10° NNW
ATLAS 2AS CENTAUR R/B 4.0 18:12:04 10° NW 18:19:08 34° NNE 18:25:48 10° E
STARLINK-1125 4.0 18:15:21 10° WNW 18:19:22 58° SSW 18:23:22 10° SE
STARLINK-1098 3.8 18:15:28 10° WNW 18:19:37 69° NNE 18:23:45 10° E
STARLINK-1202 4.1 18:15:54 10° SW 18:19:42 39° SE 18:23:31 10° ENE
STARLINK-1228 2.7 18:16:58 10° SW 18:19:49 64° SSE 18:22:41 10° ENE
SL-14 R/B 3.6 18:16:39 10° N 18:20:37 49° ENE 18:24:32 10° SSE
STARLINK-1109 4.1 18:20:06 10° WNW 18:24:06 55° SSW 18:28:06 10° SE
Cosmos 1980 3.9 18:18:37 10° SSW 18:24:19 85° WNW 18:30:03 10° NNE
STARLINK-1123 3.8 18:20:27 10° WNW 18:24:36 71° NNE 18:28:45 10° E
SL-8 R/B 3.8 18:19:50 10° W 18:24:36 72° S 18:29:22 10° E
ERBS 2.9 18:23:10 10° WSW 18:26:30 57° NNW 18:29:50 10° NE
STARLINK-1246 4.0 18:22:51 10° SW 18:26:45 44° SE 18:30:39 10° ENE
STARLINK-1091 4.2 18:24:55 10° WNW 18:28:54 52° SSW 18:32:53 10° SE
Cosmos 2315 Rocket 4.3 18:23:19 10° SSE 18:29:15 45° E 18:35:16 10° NNE
Cosmos 1766 3.3 18:25:30 10° S 18:29:29 89° W 18:33:30 10° N
STARLINK-1097 3.7 18:25:25 10° WNW 18:29:35 74° NNE 18:33:37 11° ESE
ADEOS Rocket 3.5 18:23:40 10° NNE 18:30:35 74° WNW 18:36:44 10° SSW
USA 234 3.9 18:25:12 10° ENE 18:31:00 33° SE 18:36:46 10° SSW
STARLINK-67 2.4 18:29:23 10° WSW 18:31:58 83° NNW 18:34:34 10° ENE
STARLINK-1201 3.0 18:29:14 10° SW 18:32:27 62° SSE 18:35:42 10° ENE
Cosmos 1626 2.1 18:29:29 10° N 18:33:10 62° ENE 18:36:50 10° SSE
STARLINK-1224 3.9 18:30:01 10° SW 18:33:56 48° SSE 18:37:52 10° ENE
Meteor 2-8 Rocket 4.4 18:28:11 10° S 18:34:17 71° E 18:40:23 10° NNE
STARLINK-1099 3.7 18:30:25 10° WNW 18:34:34 76° NNE 18:38:25 12° ESE
STARLINK-1203 3.7 18:31:40 10° SW 18:35:33 52° SSE 18:39:26 10° ENE
H-2A R/B 2.1 18:30:37 10° SSE 18:35:54 78° ENE 18:41:06 10° NNW
HJ-1C 4.4 18:33:45 10° S 18:37:01 50° W 18:40:19 10° NNW
SL-16 R/B 2.4 18:32:51 10° S 18:38:17 49° ESE 18:43:44 10° NE
STARLINK-1225 3.8 18:34:36 10° SW 18:38:33 51° SSE 18:42:31 10° ENE
STARLINK-1072 4.4 18:35:16 10° WNW 18:39:08 44° SSW 18:42:58 10° SE
STARLINK-1104 3.7 18:35:24 10° WNW 18:39:34 79° NNE 18:43:12 13° ESE
TSX-5 4.3 18:34:29 10° NNW 18:40:11 73° NE 18:44:30 10° SE
SL-08 RB Rocket 3.9 18:36:09 10° SE 18:40:32 52° ENE 18:44:59 10° N
Cosmos 2333 Rocket 4.1 18:35:42 10° WSW 18:40:48 33° NW 18:45:53 10° NNE
Resurs 01 Rocket 2.7 18:38:54 11° ESE 18:42:21 27° ENE 18:46:04 10° N
STARLINK-1230 3.7 18:39:19 10° SW 18:43:17 54° SSE 18:47:16 10° ENE
STARLINK-1096 4.5 18:39:38 10° WNW 18:43:28 42° SW 18:47:16 10° SE
STARLINK-1144 3.6 18:40:23 10° WNW 18:44:33 82° NNE 18:47:59 15° ESE
STARLINK-1233 2.8 18:42:44 10° WSW 18:45:52 77° SSE 18:48:52 11° ENE
STARLINK-1212 2.8 18:43:12 10° WSW 18:46:19 78° SSE 18:49:17 11° ENE
FREGAT/IRIS 2.3 18:43:49 10° SSE 18:46:33 83° WSW 18:49:17 10° NNW
STARLINK-1105 2.8 18:43:38 10° WSW 18:46:45 78° SSE 18:49:44 11° ENE
Cosmos 1302 Rocket 4.0 18:41:42 10° NNW 18:47:01 85° ENE 18:52:19 10° SSE
STARLINK-1206 2.8 18:44:08 10° WSW 18:47:14 79° SSE 18:50:09 12° ENE
STARLINK-1247 2.8 18:44:34 10° WSW 18:47:41 79° SSE 18:50:34 12° ENE
STARLINK-1243 3.7 18:44:05 10° SW 18:48:06 58° SSE 18:52:06 10° ENE
STARLINK-1227 2.8 18:44:58 10° WSW 18:48:07 80° SSE 18:51:02 12° ENE
STARLINK-1218 2.8 18:45:28 10° WSW 18:48:35 80° SSE 18:51:26 12° ENE
Abrixas rocket 4.0 18:47:23 10° S 18:48:56 13° SSE 18:49:06 13° SE
STARLINK-1226 2.8 18:45:54 10° WSW 18:49:01 81° SSE 18:51:53 12° ENE
STARLINK-1254 2.8 18:46:21 10° WSW 18:49:28 81° SSE 18:52:20 12° ENE
STARLINK-1103 3.6 18:45:21 10° WNW 18:49:32 85° NNE 18:52:45 16° ESE
STARLINK-1215 2.8 18:46:49 10° WSW 18:49:57 81° SSE 18:52:44 12° ENE
SeaSat 1 3.9 18:45:21 10° NNE 18:49:58 41° NW 18:54:34 10° WSW
Cosmos 1709 Rocket 4.0 18:43:43 10° N 18:49:59 85° E 18:56:08 10° S
STARLINK-1231 2.8 18:47:15 10° WSW 18:50:22 82° SSE 18:53:10 12° ENE
Cosmos 1953 3.3 18:47:59 10° SE 18:51:17 25° E 18:54:34 10° NNE
STARLINK-1232 2.8 18:48:10 10° WSW 18:51:17 83° SSE 18:54:02 13° ENE
STARLINK-1217 2.8 18:48:37 10° WSW 18:51:44 83° SSE 18:54:28 13° ENE
STARLINK-1208 2.8 18:49:02 10° WSW 18:52:10 84° SSE 18:54:56 13° ENE
STARLINK-1229 2.8 18:49:31 10° WSW 18:52:38 84° SSE 18:55:20 13° ENE
STARLINK-1236 3.6 18:48:50 10° SW 18:52:51 61° SSE 18:56:45 11° ENE
STARLINK-1271 2.8 18:49:58 10° WSW 18:53:05 85° SSE 18:55:46 13° ENE
STARLINK-1270 2.8 18:50:25 10° WSW 18:53:33 85° SSE 18:56:13 13° ENE
STARLINK-1154 2.8 18:50:52 10° WSW 18:53:59 86° SSE 18:56:39 14° ENE
STARLINK-1101 3.6 18:50:20 10° WNW 18:54:30 89° NNE 18:57:32 18° ESE
STARLINK-1197 2.8 18:51:47 10° WSW 18:54:53 86° SSE 18:57:31 14° ENE
MONITOR-E 4.1 18:52:27 10° S 18:55:04 66° WSW 18:57:43 10° NNW
Cosmos 1269 Rocket 4.0 18:49:51 10° SSW 18:55:08 81° ESE 19:00:29 10° NNE
STARLINK-1189 2.8 18:52:13 10° WSW 18:55:21 87° SSE 18:57:57 14° ENE
STARLINK-1187 2.8 18:53:04 10° WSW 18:56:12 87° NNW 18:58:50 14° ENE
STARLINK-1188 2.8 18:53:08 10° WSW 18:56:15 88° SSE 18:58:49 14° ENE
STARLINK-1198 2.8 18:53:08 10° WSW 18:56:15 88° SSE 18:58:49 14° ENE
STARLINK-1235 2.9 18:53:45 10° WSW 18:56:55 81° NNW 18:59:33 14° ENE
CZ-4C R/B 4.2 18:52:21 10° WNW 18:57:18 29° NNW 19:03:05 10° NE
STARLINK-1199 2.8 18:55:04 10° WSW 18:58:12 90° SSE 19:00:44 15° ENE
STARLINK-1191 2.8 18:55:31 10° WSW 18:58:39 90° NNW 19:01:09 15° ENE
STARLINK-1210 2.8 18:55:58 10° WSW 18:59:07 89° NNE 19:01:36 15° ENE
STARLINK-1102 3.6 18:55:18 10° WNW 18:59:28 88° SSW 19:02:19 20° ESE
STARLINK-1221 2.8 18:56:24 10° WSW 18:59:33 89° NW 19:02:02 15° ENE
STARLINK-1219 2.8 18:56:52 10° WSW 19:00:01 89° NNW 19:02:29 15° ENE
STARLINK-1222 2.8 18:57:19 10° WSW 19:00:28 88° NNW 19:02:54 16° ENE
ISS -3.8 18:57:18 10° WNW 19:00:41 88° NNE 19:02:41 22° ESE
STARLINK-1211 2.8 18:57:46 10° WSW 19:00:55 88° N 19:03:20 16° ENE
STARLINK-1214 2.8 18:58:14 10° WSW 19:01:22 87° NNW 19:03:45 16° ENE
Cosmos 2297 4.2 18:55:50 10° NW 19:01:27 62° WSW 19:07:03 10° SSE
STARLINK-1245 2.8 18:58:42 10° WSW 19:01:49 87° NNW 19:04:10 16° ENE
STARLINK-1238 2.8 18:59:05 10° WSW 19:02:13 86° NNW 19:04:37 16° ENE
STARLINK-1269 3.5 18:58:37 10° SW 19:02:40 69° SSE 19:06:12 13° ENE
Cosmos 2074 Rocket 4.3 18:56:46 10° N 19:02:49 47° ENE 19:08:16 13° SE
Cosmos 1455 Rocket 3.6 18:58:32 10° SSW 19:02:50 61° WNW 19:07:11 10° N
Cosmos 2251 Rocket 4.3 18:58:13 10° SSE 19:02:52 31° E 19:07:33 10° NE
STARLINK-1205 2.8 19:00:01 10° WSW 19:03:08 86° NNW 19:05:26 17° ENE
BREEZE-M DEB (TANK) 3.8 18:55:12 10° W 19:03:14 82° S 19:05:20 21° ESE
STARLINK-1204 2.8 19:00:29 10° WSW 19:03:36 85° NNW 19:05:53 17° ENE
Cosmos 2084 Rocket 3.6 18:59:28 10° NW 19:03:56 70° NE 19:06:58 20° SE
STARLINK-1111 3.6 19:00:18 10° WNW 19:04:28 84° SSW 19:07:06 22° ESE
STARLINK-1200 3.5 19:03:25 10° WSW 19:07:29 73° SSE 19:10:50 15° ENE
Cosmos 2237 Rocket 3.3 19:02:29 10° SW 19:07:54 47° NW 19:13:23 10° NNE
CZ-2C R/B 3.1 19:03:23 10° NNE 19:08:11 36° E 19:12:56 10° SSE
Cosmos 1626 Rocket 3.6 19:04:29 10° NNW 19:08:54 80° W 19:13:15 10° S
STARLINK-1073 3.6 19:05:17 10° WNW 19:09:27 80° SSW 19:11:53 24° ESE
STARLINK-1192 3.5 19:08:09 10° WSW 19:12:14 77° SSE 19:15:24 16° ENE
STARLINK-1121 3.6 19:10:15 10° WNW 19:14:24 77° SSW 19:16:39 26° ESE
Cosmos 292 Rocket 3.8 19:10:32 10° NNW 19:15:19 67° ENE 19:18:32 21° SE
ARGOS 3.7 19:11:02 10° S 19:16:23 61° WSW 19:21:45 10° NNW
Cosmos 1602 Rocket 3.6 19:12:25 10° NNW 19:16:55 84° W 19:21:21 10° S
STARLINK-1244 3.5 19:13:04 10° WSW 19:17:09 81° SSE 19:20:08 18° ENE
Cosmos 1656 Rocket 4.4 19:12:22 10° NNW 19:17:40 38° NE 19:20:40 22° ESE
IRIDIUM 104 4.3 19:13:02 10° N 19:18:16 70° E 19:23:28 10° SSE
STARLINK-1106 3.6 19:15:13 10° WNW 19:19:21 73° SSW 19:21:25 28° SE
STARLINK-1138 3.5 19:17:39 10° WSW 19:21:45 84° SSE 19:24:34 20° ENE
MOS 1 Rocket 3.7 19:17:31 10° NNE 19:22:35 50° E 19:27:50 10° S
STARLINK-1234 3.1 19:19:44 10° W 19:22:41 60° NNW 19:24:03 27° ENE
USA 186 3.8 19:20:38 10° SSW 19:23:44 31° W 19:26:47 10° NNW
STARLINK-1112 3.7 19:20:14 10° WNW 19:24:22 69° SSW 19:26:14 31° SE
STARLINK-1143 3.5 19:22:32 10° WSW 19:26:39 88° SSE 19:29:16 21° ENE
MetOp-A 4.2 19:21:38 10° SSE 19:27:00 83° WSW 19:32:25 10° NNW
IRIDIUM 114 4.3 19:22:11 10° N 19:27:27 83° E 19:32:40 10° S
COSMOS 2455 4.2 19:23:26 10° NNW 19:28:29 27° NNE 19:32:01 16° ENE
CZ-2C R/B 4.1 19:24:06 10° S 19:28:53 43° W 19:33:31 10° NNW
STARLINK-1128 3.8 19:25:13 10° WNW 19:29:19 65° SSW 19:31:01 33° SE
Cosmos 1437 2.8 19:28:19 10° N 19:31:18 48° ENE 19:31:24 48° E
Cosmos 1470 3.3 19:28:36 10° SSW 19:32:25 58° WNW 19:36:17 10° N
Cosmos 1726 Rocket 4.3 19:33:41 31° E 19:33:56 31° E 19:37:51 10° NNE
STARLINK-1113 3.8 19:30:12 10° WNW 19:34:17 61° SSW 19:35:47 36° SE
STARLINK-1241 3.5 19:30:54 10° WSW 19:34:58 86° NNW 19:37:13 26° ENE
SPOT 3 Rocket 3.9 19:30:19 10° S 19:35:30 65° WSW 19:40:43 10° NNW
Cosmos 1825 Rocket 3.5 19:31:34 10° N 19:36:00 63° ENE 19:37:53 32° SSE
IRIDIUM 103 4.4 19:31:22 10° N 19:36:38 84° W 19:41:50 10° S
NOSS 3-4 (A) 4.2 19:31:57 10° NW 19:38:30 50° NE 19:42:42 25° E
NOSS 3-4 (C) 4.2 19:32:02 10° NW 19:38:36 50° NE 19:42:48 25° E
STARLINK-1119 3.9 19:35:10 10° WNW 19:39:15 57° SSW 19:40:34 38° SSE
STARLINK-1239 3.5 19:35:50 10° WSW 19:39:54 83° NNW 19:41:56 28° ENE
Cosmos 2369 Rocket 2.2 19:34:12 10° NNW 19:39:57 89° WSW 19:43:14 26° SSE
Cosmos 1726 2.0 19:42:57 40° SSE 19:44:05 65° E 19:47:49 10° NNE
STARLINK-1114 4.0 19:40:12 10° WNW 19:44:15 54° SSW 19:45:24 40° SSE
STARLINK-1240 3.6 19:40:34 10° WSW 19:44:38 80° NNW 19:46:28 31° ENE
Aureole 2 Rocket 2.6 19:41:28 10° NNW 19:44:59 69° WSW 19:45:56 44° S
Cosmos 1758 Rocket 3.5 19:41:23 10° N 19:45:47 89° W 19:47:54 30° S
Cosmos 2263 4.1 19:40:20 10° NNW 19:46:00 78° ENE 19:48:35 33° SE
Cosmos 1758 4.4 19:42:29 10° SSW 19:46:26 47° WNW 19:50:26 10° N
SAR-Lupe-2 4.1 19:44:35 10° NNE 19:47:28 42° ENE 19:47:28 42° ENE
Cosmos 1908 4.1 19:48:57 33° ENE 19:48:57 33° ENE 19:51:45 10° NNE
CZ-2C R/B 4.2 19:43:32 10° N 19:48:17 66° WNW 19:52:56 10° SSW
STARLINK-1130 (DARKSAT) 4.1 19:45:11 10° WNW 19:49:12 51° SSW 19:50:10 41° SSE
STARLINK-1216 3.6 19:45:19 10° WSW 19:49:22 77° NNW 19:51:03 34° ENE
NOSS 3-3 (A) 4.1 19:43:58 10° SSW 19:49:35 48° ESE 19:55:54 10° NE
NOSS 3-3 (C) 4.1 19:44:06 10° SSW 19:49:42 48° ESE 19:56:00 10° NE
Meteor 2-17 Rocket 4.5 19:44:45 10° N 19:50:52 63° ENE 19:53:45 32° SSE
ATLAS CENTAUR R/B 4.2 19:50:22 10° NNW 19:51:36 11° N 19:52:49 10° NNE
Cosmos 1953 Rocket 3.6 19:47:51 10° N 19:52:17 64° ENE 19:53:22 47° SE
STARLINK-1209 3.4 19:49:50 10° W 19:52:43 48° N 19:52:50 48° N
STARLINK-1084 4.1 19:50:09 10° WNW 19:54:09 47° SSW 19:54:56 41° S
STARLINK-1237 3.6 19:50:06 10° WSW 19:54:09 75° NNW 19:55:38 37° ENE
Terra 3.2 19:53:53 23° ENE 19:54:13 23° ENE 19:57:58 10° N
Cosmos 2184 Rocket 4.0 19:48:28 10° N 19:54:51 82° W 19:59:37 18° S
STARLINK-1228 3.5 19:52:03 10° W 19:54:50 47° N 19:54:50 47° N
Spot 2 Rocket 3.5 19:55:41 39° SE 19:57:33 70° ENE 20:02:39 10° N
STARLINK-1202 3.7 19:54:50 10° W 19:58:54 72° NNW 20:00:12 41° ENE
STARLINK-1098 4.2 19:55:10 10° WNW 19:59:07 44° SSW 19:59:43 41° S
Cosmos 1606 Rocket 3.4 19:59:08 46° SSE 20:00:19 70° E 20:04:46 10° NNE
Cosmos 1943 Rocket 2.8 19:55:54 10° NW 20:01:13 50° WSW 20:04:35 22° S
SPOT 1/Viking Rocket 3.8 20:00:50 43° ESE 20:02:04 52° ENE 20:07:08 10° N
ERBS 4.3 20:00:25 10° WNW 20:03:20 26° N 20:04:36 20° NNE
STARLINK-1123 4.3 20:00:09 10° WNW 20:04:04 41° SW 20:04:30 40° SSW
Cosmos 1943 3.2 20:01:04 21° S 20:04:46 54° ESE 20:10:19 10° NE
STARLINK-67 4.5 20:03:38 10° WNW 20:05:16 29° NW 20:05:16 29° NW
STARLINK-1246 3.8 20:02:03 10° W 20:06:09 69° NNW 20:07:11 47° NE
Meteor 2-10 4.1 20:01:28 10° SSW 20:06:50 83° WNW 20:12:27 10° N
SL-8 R/B 3.8 20:02:17 10° W 20:06:58 56° SSW 20:07:34 52° SSE
STARLINK-1201 3.7 20:05:35 10° W 20:08:41 52° NNW 20:08:41 52° NNW
STARLINK-1097 4.4 20:05:09 10° WNW 20:09:01 39° SW 20:09:16 38° SSW
ATLAS 2AS CENTAUR R/B 2.9 20:03:42 10° NW 20:11:27 70° NE 20:14:22 39° ESE
STARLINK-1224 3.8 20:09:12 10° W 20:13:15 66° NNW 20:13:57 54° NE
Cosmos 1340 Rocket 4.3 20:15:29 26° NE 20:15:29 26° NE 20:17:32 10° NNE
STARLINK-1203 3.8 20:10:36 10° W 20:14:33 63° NNW 20:15:06 56° NNE
USA 234 3.2 20:07:59 10° ENE 20:14:33 87° SSE 20:21:07 10° WSW
Cosmos 2154 Rocket 4.0 20:09:33 10° N 20:15:57 87° W 20:18:59 34° S
USA 245 4.0 20:15:18 49° SSE 20:16:47 90° E 20:22:46 10° NNW
STARLINK-1225 3.8 20:13:48 10° W 20:17:52 65° N 20:18:23 57° NNE
Resurs 01 Rocket 2.7 20:16:28 23° SSW 20:18:42 40° W 20:22:53 10° NNW
Cosmos 1328 4.0 20:16:02 10° NNW 20:20:01 64° W 20:20:25 60° SW
STARLINK-1233 4.4 20:18:45 10° W 20:21:02 37° NW 20:21:02 37° NW
Cosmos 921 Rocket 3.8 20:17:57 10° N 20:21:21 38° NE 20:21:21 38° NE
STARLINK-1212 4.4 20:19:14 10° W 20:21:27 37° NW 20:21:27 37° NW
SL-16 R/B 3.7 20:17:25 10° WSW 20:22:36 36° NW 20:27:49 10° NNE
STARLINK-1230 3.8 20:18:34 10° W 20:22:37 63° N 20:22:57 60° NNE
STARLINK-1105 4.4 20:19:39 10° W 20:21:54 37° NW 20:21:54 37° NW
STARLINK-1206 4.5 20:20:10 10° W 20:22:19 35° NW 20:22:19 35° NW
Cosmos 2228 3.1 20:22:39 55° SW 20:23:29 74° WNW 20:27:49 10° N
STARLINK-1227 4.5 20:21:01 10° W 20:23:12 35° NW 20:23:12 35° NW
Cosmos 967 Rocket 4.4 20:18:25 10° SSW 20:24:51 74° SE 20:31:21 10° NE
STARLINK-1243 3.9 20:23:25 10° W 20:27:28 62° N 20:27:36 61° N
Cosmos 1953 4.1 20:24:01 10° SW 20:27:34 31° WNW 20:31:10 10° N
Iridium 4 Rocket 4.3 20:26:01 10° N 20:28:55 30° NE 20:28:55 30° NE
Cosmos 962 Rocket 4.3 20:24:00 10° N 20:30:14 79° E 20:31:43 54° SSE
STARLINK-1236 4.0 20:28:13 10° W 20:32:12 61° NNW 20:32:12 61° NNW
Nadezhda 1 Rocket 4.1 20:29:47 20° SSW 20:34:24 76° W 20:40:50 10° N
SL-8 Rocket 4.0 20:29:56 10° N 20:36:10 61° ENE 20:37:01 56° ESE
ISS -1.4 20:34:19 10° W 20:35:39 19° WSW 20:35:39 19° WSW
Cosmos 2058 Rocket 3.2 20:42:38 70° N 20:42:38 70° N 20:46:41 10° N
STARLINK-1269 4.2 20:38:09 10° W 20:41:43 54° NW 20:41:43 54° NW
SPOT 5 2.9 20:44:26 60° NNE 20:44:26 60° NNE 20:48:08 10° N
Cosmos 614 Rocket 4.2 20:44:49 56° NE 20:44:49 56° NE 20:49:03 10° NNE
Cosmos 2366 rocket 4.0 20:37:55 10° N 20:43:58 56° ENE 20:44:18 55° E
Cosmos 1603 3.9 20:38:26 10° SW 20:44:03 68° WNW 20:49:41 10° NNE
STARLINK-1200 4.4 20:43:00 10° W 20:46:21 50° NW 20:46:21 50° NW
CZ-4C R/B 4.3 20:42:29 10° NW 20:47:51 28° NNE 20:53:34 12° ENE
CZ-2C R/B 3.9 20:43:45 10° N 20:48:30 37° WNW 20:53:12 10° SW
IGS 5A 4.1 20:49:02 53° WNW 20:49:02 53° WNW 20:52:47 10° NNW
ERS-1 Rocket 2.9 20:48:38 84° SW 20:48:42 84° WSW 20:53:47 10° NNW
Landsat 7 4.2 20:49:40 55° WSW 20:49:59 57° W 20:54:42 10° NNW
Cosmos 1980 Rocket 4.4 20:48:23 10° N 20:51:21 14° NNE 20:53:43 11° NE
Cosmos 1959 Rocket 4.4 20:53:08 10° N 20:59:31 73° ENE 20:59:53 71° ESE
Cosmos 1656 Rocket 4.3 20:55:58 10° NW 21:01:23 46° WSW 21:02:03 44° SW
Aureole 1 Rocket 4.2 21:01:51 33° SSW 21:05:44 89° WNW 21:12:11 10° NNE
CARTOSAT-1 4.4 21:07:29 48° NW 21:07:29 48° NW 21:10:50 10° NNW
COSMOS 2455 2.8 21:09:14 10° NW 21:15:09 83° NNE 21:15:09 83° NNE
In-Cosmos 22 Rocket 4.3 21:14:40 10° NNW 21:20:10 80° NNW 21:20:10 80° NNW
Cosmos 1461 4.3 21:17:59 10° NW 21:20:56 41° NW 21:20:56 41° NW
Cosmos 2369 Rocket 4.3 21:19:41 10° WNW 21:23:09 17° W 21:25:03 14° WSW
Cosmos 1821 Rocket 4.5 21:21:54 10° N 21:27:28 50° NE 21:27:28 50° NE
Cosmos 1763 Rocket 4.4 21:23:30 10° NNW 21:27:28 42° NNE 21:27:28 42° NNE
NOSS 3-4 (A) 4.0 21:22:53 10° NW 21:29:41 58° SW 21:30:09 57° SW
NOSS 3-4 (C) 4.0 21:22:58 10° NW 21:29:47 58° SW 21:30:14 57° SW
Terra 2.8 21:32:45 44° NW 21:32:45 44° NW 21:36:20 10° NNW
ATLAS CENTAUR R/B 3.9 21:29:44 10° NNW 21:31:52 15° NNE 21:31:52 15° NNE
Meteor 2-12 Rocket 4.5 21:30:52 10° NNW 21:36:34 76° NW 21:36:34 76° NW
Cosmos 1818 4.3 21:39:12 47° NNE 21:39:12 47° NNE 21:43:15 10° NE
Cosmos 2218 Rocket 4.4 21:42:35 10° NNW 21:48:33 52° W 21:48:36 52° W
USA 234 3.8 21:51:02 10° ENE 21:57:22 54° NNW 22:03:42 10° W
ATLAS 2AS CENTAUR R/B 3.7 21:55:17 10° NW 22:01:48 36° WSW 22:01:48 36° WSW
Cosmos 1697 Rocket 3.6 22:05:55 10° NNW 22:10:12 43° NNE 22:10:12 43° NNE
SL-16 R/B 4.4 22:09:58 10° N 22:13:38 17° NNE 22:15:22 15° NE
Mayak 1.2 22:14:03 10° N 22:15:32 20° N 22:15:32 20° N
Cosmos 2322 Rocket 4.4 22:24:14 10° N 22:28:01 18° NNE 22:29:38 16° NE
Cosmos 1980 Rocket 3.4 22:31:28 10° NNW 22:35:28 38° NNE 22:35:28 38° NNE
CZ-4C R/B 3.4 22:31:16 10° NW 22:37:54 52° NE 22:38:44 50° ENE
Cosmos 2082 Rocket 4.1 23:00:52 21° NE 23:00:52 21° NE 23:02:53 10° NE
ATLAS 5 CENTAUR R/B 3.9 23:20:05 24° NNE 23:20:05 24° NNE 23:22:34 10° NE
Cosmos 1833 Rocket 4.0 23:28:31 35° NNE 23:28:31 35° NNE 23:31:43 10° NNE
USA 234 3.9 23:33:34 10° E 23:39:51 52° N 23:46:09 10° WNW
SL-16 R/B 3.5 23:52:44 40° ENE 23:52:55 40° ENE 23:58:40 10° N
